Flagstaff, AZ

7:37 PM MST on March 24, 2017 (GMT -0700)
Flagstaff Pulliam

Weather History for KFLG - April, 2014

Change the Weather History Date:

Saturday, April 26, 2014

  Actual Average Record
Temperature  
Mean Temperature 39 °F 46 °F  
Max Temperature 49 °F 62 °F 79 °F (1996)
Min Temperature 28 °F 31 °F 17 °F (1972)
Degree Days  
Heating Degree Days 26 19  
Month to date heating degree days 547 577  
Since 1 July heating degree days 5909 6284  
Cooling Degree Days 0 0  
Month to date cooling degree days 0 0  
Year to date cooling degree days 0 0  
Moisture  
Dew Point 28 °F    
Average Humidity 69    
Maximum Humidity 96    
Minimum Humidity 42    
Precipitation  
Precipitation 0.90 in 0.02 in 1.22 in (1963)
Month to date precipitation 1.25 1.03  
Year to date precipitation 3.09 7.36  
Snow  
Snow 5.50 in 0.20 in 8.50 in (1985)
Month to date snowfall 9.1 6.4  
Since 1 July snowfall 44.0 100.3  
Snow Depth 3.00 in    
Sea Level Pressure  
Sea Level Pressure 29.68 in    
Wind  
Wind Speed 16 mph (SW)    
Max Wind Speed 31 mph    
Max Gust Speed 41 mph    
Visibility 4 miles    
Events Fog , Rain , Snow    
T = Trace of Precipitation, MM = Missing Value Source: NWS Daily Summary

Daily Weather History Graph

Daily Weather History Graph

Search for Another Location

Airport or City:

Trip Planner

Search our weather history database for the weather conditions in past years. The results will help you decide how hot, cold, wet, or windy it might be!

Date:

Astronomy

Apr. 26, 2014 Rise Set
Actual Time 5:41 AM MST 7:08 PM MST
Civil Twilight 5:14 AM MST 7:35 PM MST
Nautical Twilight 4:42 AM MST 8:07 PM MST
Astronomical Twilight 4:08 AM MST 8:41 PM MST
Moon 4:00 AM MST (4/26) 4:46 PM MST (4/26)
Length of Visible Light 14h 20m
Length of Day
13h 27m
Waning Crescent, 7% of the Moon is Illuminated
Apr 26
Waning Crescent
Apr 28
New
May 6
First Quarter
May 14
Full
May 21
Last Quarter

Hourly Weather History & Observations

Time (MST) Temp. Windchill Dew Point Humidity Pressure Visibility Wind Dir Wind Speed Gust Speed Precip Events Conditions
12:57 AM 48.0 °F - 27.0 °F 44% 29.55 in 10.0 mi SSW 16.1 mph 25.3 mph N/A   Mostly Cloudy
1:57 AM 46.0 °F 39.3 °F 32.0 °F 58% 29.50 in 10.0 mi SSW 16.1 mph 27.6 mph N/A   Overcast
2:57 AM 45.0 °F 38.2 °F 33.1 °F 63% 29.47 in 10.0 mi South 15.0 mph 23.0 mph N/A   Overcast
3:19 AM 43.0 °F 35.7 °F 35.1 °F 74% 29.68 in 8.0 mi South 15.0 mph 23.0 mph 0.00 in Rain Light Rain
3:57 AM 41.0 °F 32.8 °F 35.1 °F 79% 29.45 in 4.0 mi SSW 16.1 mph 31.1 mph 0.03 in Rain Rain
4:30 AM 37.9 °F 25.9 °F 35.1 °F 89% 29.67 in 3.0 mi SW 28.8 mph 40.3 mph 0.09 in Rain Rain
4:49 AM 37.0 °F 27.0 °F 35.1 °F 93% 29.66 in 2.5 mi SSW 18.4 mph 36.8 mph 0.15 in Rain Heavy Rain
4:57 AM 37.0 °F 25.9 °F 35.1 °F 93% 29.45 in 2.5 mi SSW 23.0 mph 29.9 mph 0.18 in Rain Heavy Rain
5:14 AM 37.0 °F 28.1 °F 35.1 °F 93% 29.65 in 3.0 mi SSW 15.0 mph 26.5 mph 0.06 in Rain Rain
5:54 AM 35.6 °F 25.5 °F 33.8 °F 93% 29.66 in 3.0 mi SW 17.3 mph 31.1 mph 0.14 in Rain Rain
5:57 AM 35.1 °F 23.5 °F 33.1 °F 92% 29.47 in 2.5 mi SW 21.9 mph 31.1 mph 0.15 in Rain Heavy Rain
6:19 AM 34.0 °F 22.1 °F 32.0 °F 92% 29.65 in 1.2 mi SW 21.9 mph 27.6 mph 0.06 in Snow Light Snow
6:57 AM 34.0 °F 22.4 °F 32.0 °F 92% 29.48 in 1.2 mi SSW 20.7 mph 34.5 mph 0.12 in Snow Light Snow
7:13 AM 34.0 °F 23.8 °F 32.0 °F 92% 29.65 in 3.0 mi SW 16.1 mph 24.2 mph 0.02 in Snow Light Snow
7:34 AM 34.0 °F 23.0 °F 32.0 °F 92% 29.65 in 1.8 mi SSW 18.4 mph 33.4 mph 0.04 in Snow Light Snow
7:57 AM 34.0 °F 23.4 °F 32.0 °F 92% 29.49 in 1.0 mi SSW 17.3 mph 25.3 mph 0.06 in Snow Light Snow
8:07 AM 33.1 °F 21.9 °F 30.9 °F 92% 29.65 in 0.8 mi SSW 18.4 mph - 0.01 in Snow Light Snow
8:57 AM 33.1 °F 21.9 °F 30.9 °F 92% 29.50 in 0.2 mi SSW 18.4 mph 28.8 mph 0.07 in Fog , Snow Heavy Snow
9:33 AM 33.1 °F 21.2 °F 30.9 °F 92% 29.65 in 0.5 mi SSW 20.7 mph 27.6 mph 0.06 in Fog , Snow Snow
9:49 AM 30.9 °F 17.5 °F 28.9 °F 92% 29.68 in 0.2 mi WSW 24.2 mph 39.1 mph 0.09 in Fog , Snow Heavy Snow
9:57 AM 30.0 °F 18.3 °F 28.9 °F 96% 29.53 in 0.2 mi WSW 17.3 mph 32.2 mph 0.10 in Fog , Snow Heavy Snow
10:37 AM 28.9 °F 15.8 °F 26.1 °F 89% 29.69 in 0.5 mi WSW 20.7 mph 28.8 mph 0.05 in Fog , Snow Snow
10:52 AM 28.4 °F 15.8 °F 26.6 °F 93% 29.70 in 0.2 mi SW 18.4 mph 24.2 mph 0.06 in Fog , Snow Heavy Snow
10:57 AM 28.9 °F 15.8 °F 26.1 °F 89% 29.57 in 0.2 mi SSW 20.7 mph 26.5 mph 0.06 in Fog , Snow Snow
11:42 AM 30.0 °F 17.9 °F 25.0 °F 82% 29.69 in 1.0 mi WSW 18.4 mph 29.9 mph 0.08 in Snow Light Snow
11:46 AM 30.0 °F 17.2 °F 23.0 °F 75% 29.69 in 3.0 mi SW 20.7 mph 29.9 mph 0.08 in Snow Light Snow
11:55 AM 30.2 °F 19.8 °F 23.0 °F 75% 29.69 in 9.0 mi WSW 13.8 mph - 0.08 in   Overcast
11:57 AM 30.0 °F 18.7 °F 23.0 °F 75% 29.57 in 10.0 mi WSW 16.1 mph - 0.08 in   Overcast
12:31 PM 30.9 °F 21.7 °F 25.0 °F 79% 29.68 in 10.0 mi WSW 11.5 mph 24.2 mph N/A   Overcast
12:57 PM 32.0 °F 23.0 °F 27.0 °F 82% 29.55 in 5.0 mi SW 11.5 mph 21.9 mph 0.00 in Snow Light Snow
1:03 PM 30.9 °F 16.7 °F 26.1 °F 82% 29.69 in 0.8 mi WSW 27.6 mph 39.1 mph 0.00 in Snow Light Snow
1:06 PM 28.9 °F 15.1 °F 25.0 °F 85% 29.69 in 0.2 mi WSW 23.0 mph 39.1 mph 0.00 in Fog , Snow Snow
1:17 PM 30.0 °F 17.9 °F 25.0 °F 82% 29.69 in 1.0 mi WSW 18.4 mph 32.2 mph 0.01 in Snow Light Snow
1:21 PM 30.0 °F 18.3 °F 25.0 °F 82% 29.69 in 3.0 mi WSW 17.3 mph 29.9 mph 0.01 in Snow Light Snow
1:33 PM 30.9 °F 19.4 °F 25.0 °F 79% 29.70 in 1.8 mi WSW 17.3 mph 31.1 mph 0.01 in Snow Light Snow
1:41 PM 30.0 °F 18.3 °F 26.1 °F 85% 29.70 in 0.5 mi WSW 17.3 mph 26.5 mph 0.01 in Fog , Snow Snow
1:48 PM 32.0 °F 20.5 °F 27.0 °F 82% 29.71 in 1.0 mi WSW 18.4 mph 29.9 mph 0.01 in Snow Light Snow
1:57 PM 33.1 °F 21.9 °F 27.0 °F 78% 29.59 in 2.0 mi WSW 18.4 mph 32.2 mph 0.01 in Snow Light Snow
2:04 PM 32.0 °F 22.5 °F 26.1 °F 79% 29.71 in 7.0 mi WSW 12.7 mph 28.8 mph 0.00 in Snow Light Snow
2:09 PM 30.9 °F 18.4 °F 25.0 °F 79% 29.72 in 0.8 mi WSW 20.7 mph 28.8 mph 0.00 in Snow Light Snow
2:11 PM 30.0 °F 19.1 °F 25.0 °F 82% 29.72 in 0.2 mi WSW 15.0 mph 28.8 mph 0.00 in Snow Heavy Snow
2:24 PM 32.0 °F 21.6 °F 27.0 °F 82% 29.72 in 0.8 mi WSW 15.0 mph 29.9 mph 0.01 in Snow Light Snow
2:27 PM 33.1 °F 23.4 °F 27.0 °F 78% 29.72 in 3.0 mi WSW 13.8 mph 28.8 mph 0.01 in Snow Light Snow
2:52 PM 32.0 °F 20.1 °F 26.6 °F 80% 29.73 in 1.2 mi WSW 19.6 mph 29.9 mph 0.01 in Snow Light Snow
2:54 PM 30.2 °F 18.9 °F 26.6 °F 86% 29.73 in 0.5 mi West 16.1 mph 29.9 mph 0.01 in Snow Snow
2:57 PM 28.9 °F 16.9 °F 26.1 °F 89% 29.64 in 0.2 mi West 17.3 mph 29.9 mph 0.02 in Fog , Snow Snow
3:26 PM 30.0 °F 18.3 °F 26.1 °F 85% 29.74 in 2.5 mi WSW 17.3 mph 26.5 mph 0.02 in Snow Light Snow
3:30 PM 32.0 °F 21.2 °F 27.0 °F 82% 29.74 in 5.0 mi WSW 16.1 mph 26.5 mph 0.02 in Snow Light Snow
3:46 PM 33.1 °F 20.9 °F 27.0 °F 78% 29.75 in 10.0 mi WSW 21.9 mph 32.2 mph 0.02 in   Mostly Cloudy
3:57 PM 33.1 °F 21.5 °F 26.1 °F 75% 29.66 in 3.0 mi WSW 19.6 mph 36.8 mph 0.02 in Snow Light Snow
4:00 PM 32.0 °F 20.8 °F 26.1 °F 79% 29.76 in 1.5 mi WSW 17.3 mph 27.6 mph 0.00 in Snow Light Snow
4:16 PM 32.0 °F 20.8 °F 27.0 °F 82% 29.77 in 2.0 mi WSW 17.3 mph 25.3 mph 0.00 in Snow Light Snow
4:30 PM 34.0 °F 23.8 °F 26.1 °F 73% 29.77 in 9.0 mi WSW 16.1 mph 29.9 mph 0.00 in Snow Light Snow
4:57 PM 35.1 °F 26.4 °F 27.0 °F 72% 29.70 in 10.0 mi WSW 12.7 mph - 0.00 in   Scattered Clouds
5:57 PM 34.0 °F 25.0 °F 27.0 °F 75% 29.73 in 10.0 mi WSW 12.7 mph - N/A   Overcast
6:57 PM 34.0 °F 25.5 °F 28.0 °F 79% 29.76 in 10.0 mi SW 11.5 mph - N/A   Overcast
7:52 PM 33.8 °F 25.3 °F 28.4 °F 81% 29.83 in 10.0 mi WSW 11.5 mph - N/A   Overcast
7:57 PM 33.1 °F 23.9 °F 28.0 °F 82% 29.77 in 10.0 mi SW 12.7 mph - N/A   Overcast
8:39 PM 33.1 °F 23.9 °F 28.0 °F 82% 29.85 in 10.0 mi WSW 12.7 mph - N/A   Overcast
8:57 PM 33.1 °F 23.9 °F 28.0 °F 82% 29.81 in 10.0 mi WSW 12.7 mph - N/A   Overcast
9:40 PM 33.1 °F 24.4 °F 28.0 °F 82% 29.87 in 10.0 mi SW 11.5 mph - N/A   Overcast
9:57 PM 33.1 °F 23.9 °F 28.9 °F 85% 29.84 in 10.0 mi SW 12.7 mph - N/A   Overcast
10:46 PM 33.1 °F 23.0 °F 28.9 °F 85% 29.88 in 10.0 mi SW 15.0 mph - N/A   Overcast
10:57 PM 33.1 °F 22.6 °F 28.9 °F 85% 29.84 in 10.0 mi SW 16.1 mph - N/A   Mostly Cloudy
11:57 PM 33.1 °F 23.4 °F 28.9 °F 85% 29.84 in 10.0 mi WSW 13.8 mph - N/A   Mostly Cloudy